Location: Unspecified
(0.0000°N, 0.0000°E)
Time: 08:30:48
(UTC+00:00)

ATLAS 5 CENTAUR DEB - Pass Details

Date: 25 February 2026
Orbit: 7342 x 34659 km, 20.8° (Epoch: 6 March)

Event Time Altitude Azimuth Distance (km) Brightness Sun altitude
Rises 00:19:05 0° 257° (WSW) 24,345 ? -80.7°
Reaches altitude 10° 01:11:58 10° 264° (W) 29,243 ? -72.7°
Maximum altitude 02:06:08 12° 270° (W) 33,616 ? -60.4°
Drops below altitude 10° 03:18:01 10° 276° (W) 37,791 ? -43.1°
Enters shadow 04:43:24 - 281° (W) 40,068 ? -22.1°
